Kapolei, HI

3:24 AM HST on December 10, 2016 (GMT -1000)
Kalaeloa (John Rodgers Field)

Weather History for PHJR - January, 2013

Change the Weather History Date:

Sunday, January 20, 2013

  Actual Average (PHNL) Record (PHNL)
Temperature  
Mean Temperature 68 °F -  
Max Temperature 79 °F 79 °F 87 °F (1986)
Min Temperature 57 °F 64 °F 53 °F (1969)
Cooling Degree Days 3    
Growing Degree Days 18 (Base 50)    
Moisture  
Dew Point 55 °F    
Average Humidity 62    
Maximum Humidity 84    
Minimum Humidity 39    
Precipitation  
Precipitation 0.00 in - - ()
Sea Level Pressure  
Sea Level Pressure 30.06 in    
Wind  
Wind Speed 4 mph (NE)    
Max Wind Speed 8 mph    
Max Gust Speed 17 mph    
Visibility 10 miles    
Events      
Averages and records for this station are not official NWS values.
T = Trace of Precipitation, MM = Missing Value Source: NWS Daily Summary

Daily Weather History Graph

Daily Weather History Graph

Search for Another Location

Airport or City:

Trip Planner

Search our weather history database for the weather conditions in past years. The results will help you decide how hot, cold, wet, or windy it might be!

Date:

Astronomy

Jan. 20, 2013 Rise Set
Actual Time 7:12 AM HST 6:14 PM HST
Civil Twilight 6:48 AM HST 6:38 PM HST
Nautical Twilight 6:21 AM HST 7:05 PM HST
Astronomical Twilight 5:54 AM HST 7:32 PM HST
Moon 1:22 PM HST (1/20) 1:58 AM HST (1/20)
Length of Visible Light 11h 50m
Length of Day
11h 02m
Waxing Gibbous, 68% of the Moon is Illuminated
Jan 20
Waxing Gibbous
Jan 26
Full
Feb 3
Last Quarter
Feb 9
New
Feb 17
First Quarter

Hourly Weather History & Observations

Time (HST) Temp. Dew Point Humidity Pressure Visibility Wind Dir Wind Speed Gust Speed Precip Events Conditions
12:53 AM 64.9 °F 54.0 °F 68% 30.07 in 10.0 mi Variable 3.5 mph - N/A   Clear
1:28 AM 62.6 °F 53.6 °F 72% 30.04 in 10.0 mi Calm Calm - N/A   Mostly Cloudy
1:53 AM 63.0 °F 54.0 °F 72% 30.06 in 10.0 mi Calm Calm - N/A   Scattered Clouds
2:38 AM 64.4 °F 53.6 °F 68% 30.02 in 10.0 mi Variable 3.5 mph - N/A   Mostly Cloudy
2:53 AM 64.0 °F 54.0 °F 70% 30.04 in 10.0 mi Variable 4.6 mph - N/A   Overcast
3:25 AM 64.4 °F 55.4 °F 73% 30.02 in 10.0 mi Variable 4.6 mph - N/A   Scattered Clouds
3:53 AM 64.0 °F 54.0 °F 70% 30.04 in 10.0 mi Calm Calm - N/A   Mostly Cloudy
4:08 AM 64.4 °F 53.6 °F 68% 30.02 in 10.0 mi Calm Calm - N/A   Overcast
4:26 AM 60.8 °F 53.6 °F 77% 30.02 in 10.0 mi Calm Calm - N/A   Scattered Clouds
4:53 AM 57.9 °F 53.1 °F 84% 30.04 in 10.0 mi Calm Calm - N/A   Clear
5:22 AM 64.4 °F 55.4 °F 73% 30.03 in 10.0 mi Variable 5.8 mph - N/A   Mostly Cloudy
5:44 AM 66.2 °F 55.4 °F 68% 30.03 in 10.0 mi Variable 5.8 mph - N/A   Overcast
5:53 AM 66.0 °F 55.9 °F 70% 30.06 in 10.0 mi Variable 5.8 mph - N/A   Overcast
6:16 AM 66.2 °F 55.4 °F 68% 30.05 in 10.0 mi Variable 6.9 mph - N/A   Scattered Clouds
6:53 AM 64.9 °F 55.0 °F 70% 30.07 in 10.0 mi Variable 4.6 mph - N/A   Mostly Cloudy
7:53 AM 66.9 °F 55.9 °F 68% 30.09 in 10.0 mi North 5.8 mph - N/A   Overcast
8:06 AM 68.0 °F 55.4 °F 64% 30.08 in 10.0 mi Variable 4.6 mph - N/A   Overcast
8:15 AM 68.0 °F 55.4 °F 64% 30.08 in 10.0 mi Variable 5.8 mph - N/A   Overcast
8:53 AM 71.1 °F 55.9 °F 59% 30.11 in 10.0 mi North 6.9 mph - N/A   Scattered Clouds
9:53 AM 73.9 °F 55.0 °F 52% 30.11 in 10.0 mi Variable 6.9 mph 17.3 mph N/A   Scattered Clouds
10:53 AM 77.0 °F 54.0 °F 45% 30.10 in 10.0 mi ENE 6.9 mph - N/A   Clear
11:53 AM 78.1 °F 53.1 °F 42% 30.09 in 10.0 mi ENE 8.1 mph - N/A   Clear
12:53 PM 79.0 °F 52.0 °F 39% 30.05 in 10.0 mi ENE 8.1 mph 16.1 mph N/A   Clear
1:53 PM 79.0 °F 53.1 °F 40% 30.03 in 10.0 mi Variable 6.9 mph - N/A   Clear
2:53 PM 79.0 °F 53.1 °F 40% 30.01 in 10.0 mi ENE 8.1 mph - N/A   Clear
3:53 PM 78.1 °F 51.1 °F 39% 30.02 in 10.0 mi ENE 8.1 mph - N/A   Clear
4:53 PM 75.9 °F 51.1 °F 42% 30.03 in 10.0 mi Variable 6.9 mph - N/A   Clear
5:53 PM 73.0 °F 54.0 °F 51% 30.05 in 10.0 mi Variable 5.8 mph - N/A   Clear
6:53 PM 70.0 °F 55.0 °F 59% 30.06 in 10.0 mi Variable 4.6 mph - N/A   Clear
7:15 PM 69.8 °F 55.4 °F 60% 30.06 in 10.0 mi NNE 4.6 mph - N/A   Scattered Clouds
7:23 PM 69.8 °F 55.4 °F 60% 30.06 in 10.0 mi Variable 4.6 mph - N/A   Mostly Cloudy
7:44 PM 68.0 °F 55.4 °F 64% 30.07 in 10.0 mi Calm Calm - N/A   Scattered Clouds
7:53 PM 66.9 °F 55.9 °F 68% 30.09 in 10.0 mi Variable 3.5 mph - N/A   Partly Cloudy
8:05 PM 66.2 °F 55.4 °F 68% 30.08 in 10.0 mi Calm Calm - N/A   Scattered Clouds
8:53 PM 68.0 °F 57.0 °F 68% 30.10 in 10.0 mi Variable 4.6 mph - N/A   Mostly Cloudy
9:11 PM 68.0 °F 55.4 °F 64% 30.08 in 10.0 mi Variable 5.8 mph - N/A   Overcast
9:42 PM 68.0 °F 55.4 °F 64% 30.08 in 10.0 mi NNE 5.8 mph - N/A   Scattered Clouds
9:53 PM 68.0 °F 55.9 °F 65% 30.10 in 10.0 mi Variable 4.6 mph - N/A   Clear
10:04 PM 68.0 °F 55.4 °F 64% 30.09 in 10.0 mi Variable 4.6 mph - N/A   Partly Cloudy
10:53 PM 66.9 °F 55.9 °F 68% 30.10 in 10.0 mi Variable 4.6 mph - N/A   Clear
11:28 PM 66.2 °F 55.4 °F 68% 30.08 in 10.0 mi Variable 4.6 mph - N/A   Partly Cloudy
11:53 PM 68.0 °F 55.9 °F 65% 30.09 in 10.0 mi Variable 3.5 mph - N/A   Partly Cloudy